Home > Time Zones > World Clock > Weather > Spain > Cadiz > Past weeks

Flag for Spain Weather past 2 weeks in Cadiz, Cádiz, Spain

Now
54 °F

Passing clouds.


Feels Like: 50 °F
Forecast: 52 / 65 °F
Wind: 13 mph from East

Location: Rota Airport

Current Time: Mar 6, 2015 at 12:02:40 AM

Latest Report: Mar 5, 2015 at 11:00 PM


Visibility: N/A

Pressure: 30.30 "Hg

Humidity: 30%

Dew point: 23 °F

Location of CadizLocation

Historic Weather in Cadiz — Graph

°F

Cadiz temperature yesterday

Maximum temperature yesterday: 66 °F (at 1:00 PM)
Minimum temperature yesterday: 48 °F (at 8:00 AM)
Average temperature yesterday: 57 °F

Past Weeks' High & Low Weather Summary

 TemperatureHumidityPressure
High73 °F (Mar 4, 5:00 PM)100% (Mar 1, 7:00 AM)30.54 "Hg (Mar 1, 7:00 AM)
Low41 °F (Feb 19, 8:00 AM)30% (Mar 5, 11:00 PM)29.86 "Hg (Feb 21, 4:00 PM)
Average55 °F78%30.26 "Hg
* Reported Feb 18 11:00 PM — Mar 5 11:00 PM, Cadiz, Weather by CustomWeather, © 2015

Note: Actual official high and low records may vary slightly from our data, if they occured in-between our weather recording intervals... More about our weather records

Advertising

Cadiz weather history for previous 24 hours

 ConditionsComfort  
Time TempWeatherWind HumidityBarometerVisibility
11:00 PM
Thu, Mar 5
54 °FPassing clouds.13 mph30%30.30 "HgN/A
10:00 PM55 °FClear.17 mph33%30.30 "Hg10 mi
9:00 PM54 °FClear.7 mph44%30.30 "Hg10 mi
8:00 PM57 °FClear.22 mph39%30.27 "Hg10 mi
7:00 PM59 °FSunny.23 mph45%30.27 "Hg10 mi
6:00 PM63 °FPassing clouds.22 mph49%30.27 "HgN/A
5:00 PM63 °FPassing clouds.17 mph52%30.27 "HgN/A
4:00 PM63 °FPassing clouds.20 mph52%30.27 "HgN/A
3:00 PM64 °FPassing clouds.22 mph52%30.27 "HgN/A
2:00 PM64 °FPassing clouds.21 mph56%30.30 "HgN/A
1:00 PM66 °FPassing clouds.12 mph52%30.33 "HgN/A
12:00 PM63 °FPassing clouds.10 mph56%30.33 "HgN/A
11:00 AM57 °FPassing clouds.14 mph48%30.36 "HgN/A
10:00 AM54 °FPassing clouds.14 mph51%30.33 "HgN/A
9:00 AM50 °FSunny.12 mph58%30.33 "Hg10 mi
8:00 AM48 °FPassing clouds.8 mph66%30.30 "HgN/A
7:00 AM52 °FPassing clouds.8 mph62%30.30 "HgN/A
6:00 AM50 °FPassing clouds.5 mph71%30.30 "HgN/A
5:00 AM54 °FClear.7 mph88%30.30 "Hg10 mi
4:00 AM52 °FClear.2 mph88%30.30 "Hg10 mi
3:00 AM55 °FPassing clouds.5 mph88%30.30 "HgN/A
2:00 AM55 °FPassing clouds.5 mph72%30.30 "HgN/A
1:00 AM57 °FClear.12 mph72%30.30 "Hg10 mi
12:00 AM61 °FClear.12 mph68%30.27 "Hg10 mi
Weather by CustomWeather, © 2015

See weather overviewHow to use our weather pages